STARLINK-32685 (62500 NORAD) Tracking and Keplerian Element Data

This shows tracking and keplerian element data for the satellite.

Feedback or suggestion? Click here.




ElementValue
Catalog62500
NameSTARLINK-32685
Epoch Orbit564
Epoch Day35.33335648
Epoch Year2025
RAAN22.6753
Inclination43.0007
Eccentricity0.0001454
Argument of Perigee275.5836
Mean Anonmoly24.4679
Mean Motion15.41685002
Decay Rate-0.01187164
L11 62500U 25003P 25035.33335648 -.01187164 00000+0 -30220-1 0 9990
L22 62500 43.0007 22.6753 0001454 275.5836 24.4679 15.41685002 5643



Live tracking and technical data element details for STARLINK-32685 (NORAD 62500). STARLINK-32685 can be tracked NOW for your location showing map with azimuth and elevation plus other details from your city location.







IsCatalogInMostPopularTable: catalog: 62500, numindb: 14
Update: records affected: 1



GetName: 62500 STARLINK-32685

Hit Count: updated at: Mon, 19 May 2025 03:01:09 GMT